Regional Weather Roundup
Issued by NWS

Home | Current Version | Previous Version | Text Only | Print | Product List | Glossary Off
Versions: 1 2 3 4 5 6 7 8 9 10 11 12 13 14 15 16 17 18 19 20 21 22 23 24 25 26 27 28

000
ASUS45 KBOI 251010
RWRID

IDAHO REGIONAL WEATHER ROUNDUP
NATIONAL WEATHER SERVICE BOISE ID
400 AM MDT WED APR 25 2018

NOTE: "FAIR" INDICATES FEW OR NO CLOUDS BELOW 12000 FEET
WITH NO SIGNIFICANT WEATHER AND/OR OBSTRUCTIONS TO VISIBILITY

IDZ012-014-251100-
SOUTHWEST IDAHO


CITY           SKY/WX    TMP DP  RH WIND       PRES   REMARKS
BOISE          CLEAR     49  32  52 S5        30.17F
CALDWELL       CLEAR     53  32  44 SE10      30.17F
MOUNTAIN HOME  CLEAR     43  32  66 SE10      30.18S
$$

IDZ016-017-251100-
SOUTHCENTRAL IDAHO


CITY           SKY/WX    TMP DP  RH WIND       PRES   REMARKS
BURLEY         CLEAR     34  30  85 N6        30.22F WCI  29
JEROME         CLEAR     44  30  57 NE15      30.23S
TWIN FALLS     CLEAR     37  28  70 S9        30.22F WCI  30
$$

IDZ019>023-251100-
SOUTHEAST IDAHO


CITY           SKY/WX    TMP DP  RH WIND       PRES   REMARKS
IDAHO FALLS    CLEAR     31  28  89 N5        30.30F WCI  26
POCATELLO      CLEAR     37  30  75 S6        30.27F WCI  32
REXBURG        CLEAR     32  28  85 NE6       30.30F WCI  26
$$

IDZ006-010-011-018-031-032-251100-
CENTRAL IDAHO MOUNTAINS


CITY           SKY/WX    TMP DP  RH WIND       PRES   REMARKS
MCCALL         CLEAR     33  29  85 CALM      30.22F
HAILEY         CLEAR     36  28  75 NW14      30.31F WCI  27
STANLEY          N/A     25  22  88 CALM      30.31F
SALMON         CLEAR     32  25  75 CALM      30.28F
CHALLIS        CLEAR     35  19  52 S3        30.29F
$$

IDZ002-004-006-007-026-251100-
NORTHERN IDAHO


CITY           SKY/WX    TMP DP  RH WIND       PRES   REMARKS
LEWISTON       PTCLDY    53  38  56 E8        30.08F
LOWELL           N/A     41  36  82 N5        30.22F
COEUR D`ALENE  PTCLDY    41  34  76 NE9       30.10F
MULLAN PASS    MOCLDY    46  18  32 SW9       30.17F
$$




USA.gov is the U.S. government's official web portal to all federal, state and local government web resources and services.